Location: Unspecified
(0.0000°N, 0.0000°E)
Time: 18:36:27
(UTC+00:00)

FALCONSAT 3 - Visible Passes

Search period start: 19 August 2019 00:00
Search period end: 29 August 2019 00:00
Orbit: 454 x 459 km, 35.4° (Epoch: 18 August)

Date Brightness Start Highest point End Pass type
(mag) Time Alt. Az. Time Alt. Az. Time Alt. Az.
19 Aug ? 05:25:49 10° SSW 05:29:12 37° SE 05:32:33 10° ENE visible
19 Aug ? 18:46:55 10° W 18:49:34 19° SW 18:52:13 10° S visible
20 Aug ? 04:50:37 20° S 04:52:23 30° SE 04:55:36 10° E visible
21 Aug ? 04:16:12 24° SE 04:16:12 24° SE 04:18:37 10° E visible
22 Aug ? 05:15:30 17° W 05:17:32 29° NW 05:20:43 10° NNE visible
23 Aug ? 04:41:03 34° NNW 04:41:03 34° NNW 04:44:03 10° NNE visible
24 Aug ? 04:06:33 15° NNE 04:06:33 15° NNE 04:07:21 10° NE visible
